STARLINK-11556, 62838

Orbit data source: Space-Track

STARLINK-11556, 62838 is a payload satellite owned by SpaceX/Seattle (US) in LEO that was launched on Mon, 27 Jan 2025 UTC via an FALCON 9 launch vehicle from the Air Force Eastern Test Range (AFETR). Payload-class satellites include a variety of spacecraft equipped with specific instruments for various scientific and technological missions. These include communications satellites like Starlink; space stations such as the ISS; scientific satellites like the Hubble; Earth observation satellites from companies like Planet Labs, Umbra, and HawkEye 360; GPS; miniature CubeSats for education and research; and military/defense satellites.

Loading next visibility...
Identifier
62838, 2025-019K
Orbit
LEO
Last TLE update
1 day ago
Origin
Manufacturer
SpaceX/Seattle
Mission
Operational Commercial Communications
Bus & Motor
STARLINK V2M, Unknown motor
Mass
730 kg wet, ~700 kg dry
Launch date (UTC)
2025-01-27 (3 months ago)
Launch vehicle
FALCON 9
Launch site
Air Force Eastern Test Range (AFETR)
Object type
Payload
Rocket body
Debris
Shape & HBR
Box + 2 Pan, 29 m
Radar Cross Section
36.964 m², Large (>1 m²)

Expand to show TLE details & history

TLE from 1 day ago
0 STARLINK-11556
1 62838U 25019K   25127.98578800 -.00000095  00000-0  27568-5 0  9994
2 62838  43.0032 348.4682 0001787 278.2125  81.8540 15.70827189 15804
Epoch: 2025-05-07T23:39Z
Definitive object data (Epoch: 2025-05-07T23:39:32.083Z)
Latitude
-0°
Longitude
127.52174°
Altitude
356.133 km
Speed
7.697 km/s
True Right ascension
23h 13m 52s
True Declination
0° 00' 00"
Sunlit
Object was in daylight at TLE epoch
Visualization TLE readout
Latitude
-42.66444°
Longitude
19.27577°
Altitude
368.549 km
Speed
7.689 km/s
Apparent Right ascension
20h 52m 00s
Apparent Declination
-72° 41' 36"
Sunlit
Object is in full shadow
Visualization observer readout
Local Sidereal Time
13:54:32
Azimuth
157.18° SSE
Elevation
-42.007°
Doppler factor
1
Orbital elements
Apogee altitude
359.717 km
Perigee altitude
357.309 km
Semi-major axis
6,736.65 km
Eccentricity
0.0001787
Inclination
43.0032°
RAAN
348.4682°
Arg. of periapsis
278.2125°
True anomaly
81.87427°
Mean anomaly
81.854°
Eccentric anomaly
81.86414°
Mean motion
3.92534 °/min
BSTAR
0.0000027568
Orbital period
91.71 mins
Loading maneuver chart data...
Loading SW <> Apogee altitude chart data...
Loading historical data...
Loading historical data...
Loading historical data...
Loading historical data...
Loading historical data...
Loading historical data...
Loading historical data...

STARLINK-11556 Visibility forecast

Observer location: undefined°, undefined°

Span
Click to sort rows by Start time (UTC) header in descending order
Start Az.
Max El. time (UTC)
Max El. Az.
Max El.
End time (UTC)
End Az.
4 mins2025-05-09 18:39:49.461Z256.718° W2025-05-09 18:41:49.461Z59.457° ENE40.318°2025-05-09 18:43:49.461Z70.461° E
4 mins2025-05-09 20:15:49.461Z294.621° NW2025-05-09 20:17:49.461Z13.23° NNE33.888°2025-05-09 20:19:49.461Z69.479° E
4 mins2025-05-09 21:52:49.461Z293.474° NW2025-05-09 21:53:49.461Z341.035° N44.502°2025-05-09 21:56:49.461Z105.341° ESE
|